GW2923 Weather Reports


Display with metric or nautical units.
time (UTC)temp
F
wind
direction
speed
MPH
gust
MPH
rain 1hr
in
rain 24hr
in
rain mn
in
humidity
%
barometer
mb
20260902141547 67 286 7.0 12.0 0.00 0.00 0.00 64 1005.1
20260902141033 68 291 5.0 16.0 0.00 0.00 0.00 63 1005.1
20260902140531 68 234 7.0 16.0 0.00 0.00 0.00 63 1005.1
20260902140043 68 215 5.0 10.0 0.00 0.00 0.00 69 1005.1
20260902135533 66 230 1.0 4.0 0.00 0.00 0.00 72 1005.1
20260902135031 66 209 1.0 4.0 0.00 0.00 0.00 72 1005.2
20260902134545 66 186 1.0 7.0 0.00 0.00 0.00 70 1005.3
20260902134031 65 235 2.0 7.0 0.00 0.00 0.00 70 1005.4
20260902133535 65 229 3.0 7.0 0.00 0.00 0.00 69 1005.4
20260902133049 65 242 4.0 18.0 0.00 0.00 0.00 69 1005.4
20260902132533 66 224 6.0 18.0 0.00 0.00 0.00 67 1005.3
20260902132033 68 264 5.0 13.0 0.00 0.00 0.00 64 1005.4
20260902131545 69 226 5.0 13.0 0.00 0.00 0.00 63 1005.4
20260902131032 68 288 2.0 6.0 0.00 0.00 0.00 66 1005.4
20260902130530 67 180 0.0 5.0 0.00 0.00 0.00 71 1005.4
20260902130044 66 201 2.0 5.0 0.00 0.00 0.00 73 1005.5
20260902125532 66 180 1.0 4.0 0.00 0.00 0.00 72 1005.5
20260902125031 66 183 1.0 6.0 0.00 0.00 0.00 71 1005.4
20260902124550 65 216 1.0 10.0 0.00 0.00 0.00 72 1005.5
20260902124030 66 218 2.0 11.0 0.00 0.00 0.00 69 1005.7
20260902123533 67 219 6.0 11.0 0.00 0.00 0.00 66 1005.6
20260902123050 67 260 5.0 9.0 0.00 0.00 0.00 68 1005.7
20260902122530 68 245 5.0 9.0 0.00 0.00 0.00 64 1005.6
20260902122029 67 241 4.0 7.0 0.00 0.00 0.00 67 1005.6
20260902121544 65 234 1.0 10.0 0.00 0.00 0.00 71 1005.7
20260902121033 66 229 4.0 10.0 0.00 0.00 0.00 69 1005.7
20260902120530 66 264 5.0 10.0 0.00 0.00 0.00 68 1005.8
20260902120057 67 239 4.0 8.0 0.00 0.00 0.00 65 1005.7
20260902115533 68 241 3.0 8.0 0.00 0.00 0.00 68 1005.8
20260902115030 66 0 2.0 7.0 0.00 0.00 0.00 67 1005.8
20260902114550 65 226 2.0 7.0 0.00 0.00 0.00 69 1005.8
20260902114033 66 214 3.0 7.0 0.00 0.00 0.00 67 1005.9
20260902113534 67 215 2.0 8.0 0.00 0.00 0.00 69 1005.9
20260902113048 67 304 2.0 9.0 0.00 0.00 0.00 65 1005.9
20260902112530 67 232 3.0 9.0 0.00 0.00 0.00 66 1006.0
20260902112032 67 295 2.0 8.0 0.00 0.00 0.00 66 1006.1
20260902111549 67 234 4.0 8.0 0.00 0.00 0.00 67 1006.1
20260902111031 66 189 4.0 8.0 0.00 0.00 0.00 68 1006.1
20260902110533 66 284 2.0 8.0 0.00 0.00 0.00 65 1006.2
20260902110052 66 263 3.0 9.0 0.00 0.00 0.00 67 1006.2
20260902105531 66 194 4.0 9.0 0.00 0.00 0.00 68 1006.1
20260902105033 66 267 4.0 9.0 0.00 0.00 0.00 68 1006.2
20260902104550 66 251 4.0 9.0 0.00 0.00 0.00 69 1006.3
20260902104035 65 263 3.0 10.0 0.00 0.00 0.00 70 1006.2
20260902103530 65 309 2.0 11.0 0.00 0.00 0.00 67 1006.4
20260902103047 65 199 6.0 11.0 0.00 0.00 0.00 67 1006.4
20260902102530 64 255 3.0 9.0 0.00 0.00 0.00 69 1006.4
20260902102029 65 245 3.0 7.0 0.00 0.00 0.00 70 1006.4
20260902101541 65 272 2.0 9.0 0.00 0.00 0.00 69 1006.3
20260902101033 65 272 3.0 9.0 0.00 0.00 0.00 74 1006.4
20260902100531 64 232 1.0 9.0 0.00 0.00 0.00 73 1006.3
20260902100050 64 242 3.0 9.0 0.00 0.00 0.00 71 1006.3
20260902095531 63 282 2.0 9.0 0.00 0.00 0.00 74 1006.3
20260902095030 63 236 4.0 9.0 0.00 0.00 0.00 70 1006.3
20260902094555 63 200 0.0 7.0 0.00 0.00 0.00 74 1006.3
20260902094030 63 178 3.0 7.0 0.00 0.00 0.00 74 1006.2
20260902093533 63 284 2.0 7.0 0.00 0.00 0.00 71 1006.3
20260902093053 63 263 3.0 8.0 0.00 0.00 0.00 72 1006.3
20260902092530 63 250 3.0 8.0 0.00 0.00 0.00 73 1006.3
20260902092035 62 176 3.0 8.0 0.00 0.00 0.00 75 1006.4
20260902091552 62 0 3.0 7.0 0.00 0.00 0.00 75 1006.4
20260902091032 62 230 2.0 10.0 0.00 0.00 0.00 74 1006.4
20260902090530 62 241 4.0 10.0 0.00 0.00 0.00 74 1006.5
20260902090049 62 0 1.0 6.0 0.00 0.00 0.00 77 1006.3
20260902085531 62 309 2.0 7.0 0.00 0.00 0.00 78 1006.4
20260902085031 61 205 3.0 7.0 0.00 0.00 0.00 77 1006.4
20260902084544 61 172 2.0 6.0 0.00 0.00 0.00 77 1006.4
20260902084033 60 216 2.0 7.0 0.00 0.00 0.00 81 1006.4
20260902083531 60 0 3.0 7.0 0.00 0.00 0.00 81 1006.4
20260902083043 60 225 2.0 7.0 0.00 0.00 0.00 81 1006.4
20260902082531 60 220 3.0 7.0 0.00 0.00 0.00 83 1006.5
20260902082030 60 243 3.0 6.0 0.00 0.00 0.00 83 1006.5
20260902081555 60 176 2.0 5.0 0.00 0.00 0.00 87 1006.5
20260902081032 59 205 2.0 5.0 0.00 0.00 0.00 85 1006.4
20260902080533 58 222 2.0 5.0 0.00 0.00 0.00 88 1006.3
20260902080052 57 228 1.0 5.0 0.00 0.00 0.00 91 1006.4
20260902075533 56 218 3.0 5.0 0.00 0.00 0.00 90 1006.3
20260902075030 56 253 2.0 5.0 0.00 0.00 0.00 91 1006.3
20260902074606 56 240 2.0 6.0 0.00 0.00 0.00 91 1006.4
20260902074031 57 270 2.0 6.0 0.00 0.00 0.00 91 1006.4
20260902073532 57 271 2.0 6.0 0.00 0.00 0.00 93 1006.4
20260902073044 56 179 3.0 6.0 0.00 0.00 0.00 94 1006.4
20260902072529 56 227 2.0 5.0 0.00 0.00 0.00 95 1006.3
20260902072032 56 210 2.0 9.0 0.00 0.00 0.00 96 1006.3
20260902071554 55 246 4.0 9.0 0.00 0.00 0.00 96 1006.3
20260902071031 55 245 2.0 7.0 0.00 0.00 0.00 96 1006.3
20260902070534 55 218 3.0 7.0 0.00 0.00 0.00 96 1006.4
20260902070054 55 232 2.0 5.0 0.00 0.00 0.00 97 1006.2
20260902065529 55 272 3.0 5.0 0.00 0.00 0.00 97 1006.2
20260902065031 55 243 1.0 4.0 0.00 0.00 0.00 96 1006.2
20260902064550 55 228 2.0 4.0 0.00 0.00 0.00 97 1006.2
20260902064033 54 257 1.0 4.0 0.00 0.00 0.00 96 1006.1
20260902063532 55 229 1.0 5.0 0.00 0.00 0.00 97 1006.2
20260902063103 55 238 2.0 5.0 0.00 0.00 0.00 96 1006.1
20260902062532 54 206 2.0 5.0 0.00 0.00 0.00 96 1006.1
20260902062031 54 223 2.0 4.0 0.00 0.00 0.00 97 1006.2
20260902061545 54 196 1.0 4.0 0.00 0.00 0.00 97 1006.0
20260902061034 54 261 1.0 4.0 0.00 0.00 0.00 97 1006.1
20260902060530 54 188 1.0 3.0 0.00 0.00 0.00 96 1006.1
20260902060056 54 258 1.0 4.0 0.00 0.00 0.00 97 1006.1
20260902055531 53 245 1.0 4.0 0.00 0.00 0.00 97 1006.1
20260902055032 53 253 2.0 4.0 0.00 0.00 0.00 96 1006.1
20260902054545 53 238 1.0 4.0 0.00 0.00 0.00 96 1006.1
20260902054032 53 0 1.0 4.0 0.00 0.00 0.00 96 1006.0
20260902053534 52 248 1.0 4.0 0.00 0.00 0.00 96 1006.1
20260902053049 52 218 2.0 4.0 0.00 0.00 0.00 96 1005.9
20260902052531 52 207 2.0 4.0 0.00 0.00 0.00 96 1005.9
20260902052032 52 231 2.0 4.0 0.00 0.00 0.00 96 1006.0
20260902051550 52 218 2.0 4.0 0.00 0.00 0.00 96 1006.0
20260902051032 52 229 1.0 4.0 0.00 0.00 0.00 96 1006.0
20260902050531 52 232 1.0 4.0 0.00 0.00 0.00 96 1006.0
20260902050043 51 0 1.0 3.0 0.00 0.00 0.00 96 1006.1
20260902045531 51 221 0.0 3.0 0.00 0.00 0.00 96 1005.9
20260902045030 51 216 1.0 3.0 0.00 0.00 0.00 96 1006.0
20260902044553 51 219 1.0 4.0 0.00 0.00 0.00 96 1006.0
20260902044031 51 195 0.0 4.0 0.00 0.00 0.00 96 1006.0
20260902043530 51 220 1.0 2.0 0.00 0.00 0.00 96 1006.0
20260902043107 51 219 0.0 3.0 0.00 0.00 0.00 96 1006.0
20260902042530 51 0 0.0 3.0 0.00 0.00 0.00 96 1006.0
20260902042032 51 0 0.0 3.0 0.00 0.00 0.00 96 1005.9
20260902041602 51 0 0.0 3.0 0.00 0.00 0.00 96 1006.0
20260902041033 51 0 1.0 5.0 0.00 0.00 0.00 96 1006.1
20260902040532 51 0 1.0 5.0 0.00 0.00 0.00 96 1006.1
20260902040043 51 202 2.0 5.0 0.00 0.00 0.00 96 1006.1
20260902035535 51 224 1.0 5.0 0.00 0.00 0.00 96 1006.0
20260902035031 51 221 2.0 5.0 0.00 0.00 0.00 96 1006.0
20260902034603 51 240 1.0 5.0 0.00 0.00 0.00 96 1006.0
20260902034029 51 249 2.0 5.0 0.00 0.00 0.00 96 1006.0
20260902033532 51 225 2.0 5.0 0.00 0.00 0.00 96 1006.1
20260902033052 51 216 1.0 4.0 0.00 0.00 0.00 96 1006.1
20260902032532 51 236 0.0 3.0 0.00 0.00 0.00 96 1006.2
20260902032032 51 0 1.0 5.0 0.00 0.00 0.00 96 1006.2
20260902031549 50 234 1.0 5.0 0.00 0.00 0.00 96 1006.2
20260902031030 50 212 2.0 5.0 0.00 0.00 0.00 96 1006.2
20260902030532 50 232 1.0 5.0 0.00 0.00 0.00 96 1006.2
20260902030046 50 235 3.0 5.0 0.00 0.00 0.00 96 1006.1
20260902025533 49 231 1.0 6.0 0.00 0.00 0.00 96 1006.2
20260902025030 49 226 3.0 6.0 0.00 0.00 0.00 96 1006.1
20260902024553 48 235 1.0 5.0 0.00 0.00 0.00 96 1006.2
20260902024029 48 242 2.0 5.0 0.00 0.00 0.00 95 1006.2
20260902023530 48 257 1.0 5.0 0.00 0.00 0.00 95 1006.2
20260902023052 48 226 0.0 5.0 0.00 0.00 0.00 95 1006.1
20260902022531 48 0 1.0 5.0 0.00 0.00 0.00 96 1006.3
20260902022031 48 216 1.0 5.0 0.00 0.00 0.00 96 1006.2
20260902021552 48 196 1.0 5.0 0.00 0.00 0.00 96 1006.2
20260902021030 47 236 1.0 7.0 0.00 0.00 0.00 95 1006.3
20260902020533 47 224 2.0 7.0 0.00 0.00 0.00 96 1006.2
20260902020046 47 206 2.0 5.0 0.00 0.00 0.00 96 1006.3
20260902015533 47 239 1.0 5.0 0.00 0.00 0.00 95 1006.4
20260902015030 47 237 1.0 5.0 0.00 0.00 0.00 95 1006.4
20260902014551 46 230 2.0 5.0 0.00 0.00 0.00 95 1006.3
20260902014030 46 256 1.0 5.0 0.00 0.00 0.00 95 1006.4
20260902013530 46 216 1.0 5.0 0.00 0.00 0.00 95 1006.4
20260902013056 45 238 2.0 4.0 0.00 0.00 0.00 95 1006.4
20260902012538 45 249 2.0 4.0 0.00 0.00 0.00 95 1006.4
20260902012030 45 259 2.0 6.0 0.00 0.00 0.00 95 1006.4
20260902011552 45 259 1.0 6.0 0.00 0.00 0.00 95 1006.4
20260902011033 45 229 1.0 4.0 0.00 0.00 0.00 95 1006.5
20260902010531 45 234 1.0 4.0 0.00 0.00 0.00 95 1006.4
20260902010051 45 210 1.0 4.0 0.00 0.00 0.00 95 1006.5
20260902005530 45 228 1.0 5.0 0.00 0.00 0.00 95 1006.5
20260902005031 45 246 1.0 5.0 0.00 0.00 0.00 95 1006.6
20260902004544 45 236 2.0 5.0 0.00 0.00 0.00 95 1006.5
20260902004033 45 228 1.0 5.0 0.00 0.00 0.00 95 1006.5
20260902003529 45 224 1.0 5.0 0.00 0.00 0.00 94 1006.5
20260902003128 45 260 2.0 5.0 0.00 0.00 0.00 94 1006.6
20260902002531 45 232 2.0 4.0 0.00 0.00 0.00 94 1006.5
20260902002031 45 221 0.0 2.0 0.00 0.00 0.00 94 1006.6
20260902001551 45 0 0.0 0.0 0.00 0.00 0.00 94 1006.6
20260902001031 45 0 0.0 3.0 0.00 0.00 0.00 94 1006.6
20260902000532 45 0 0.0 3.0 0.00 0.00 0.00 94 1006.6
20260902000051 46 266 1.0 3.0 0.00 0.00 0.00 94 1006.5
20260901235530 46 236 1.0 4.0 0.00 0.00 0.00 94 1006.6
20260901235029 46 236 2.0 4.0 0.00 0.00 0.00 94 1006.6
20260901234554 46 232 2.0 4.0 0.00 0.00 0.00 94 1006.6
20260901234031 47 232 0.0 3.0 0.00 0.00 0.00 95 1006.7
20260901233534 47 0 0.0 3.0 0.00 0.00 0.00 95 1006.6
20260901233043 47 236 1.0 4.0 0.00 0.00 0.00 95 1006.7
20260901232530 47 235 2.0 4.0 0.00 0.00 0.00 95 1006.6
20260901232033 47 229 2.0 4.0 0.00 0.00 0.00 95 1006.7
20260901231600 47 247 1.0 4.0 0.00 0.00 0.00 95 1006.8
20260901231034 47 215 1.0 5.0 0.00 0.00 0.00 95 1006.8
20260901230532 47 250 1.0 5.0 0.00 0.00 0.00 95 1006.9
20260901230050 47 268 1.0 5.0 0.00 0.00 0.00 95 1006.9
20260901225532 46 259 0.0 4.0 0.00 0.00 0.00 95 1007.0
20260901225033 46 0 1.0 4.0 0.00 0.00 0.00 95 1007.0
20260901224550 46 224 0.0 4.0 0.00 0.00 0.00 94 1007.0
20260901224030 46 225 1.0 6.0 0.00 0.00 0.00 94 1007.0
20260901223533 46 239 1.0 6.0 0.00 0.00 0.00 94 1006.9
20260901223043 46 254 1.0 4.0 0.00 0.00 0.00 94 1007.0
20260901222537 46 0 0.0 4.0 0.00 0.00 0.00 94 1007.0
20260901222036 46 222 1.0 3.0 0.00 0.00 0.00 94 1007.0
20260901221601 46 236 0.0 4.0 0.00 0.00 0.00 94 1007.1
20260901221034 46 0 1.0 4.0 0.00 0.00 0.00 94 1007.1
20260901220530 46 0 0.0 4.0 0.00 0.00 0.00 94 1007.0
20260901220050 46 0 1.0 4.0 0.00 0.00 0.00 94 1007.0
20260901215530 46 0 0.0 3.0 0.00 0.00 0.00 94 1007.0
20260901215035 46 0 0.0 2.0 0.00 0.00 0.00 94 1006.9
20260901214551 46 0 0.0 2.0 0.00 0.00 0.00 94 1007.0
20260901214034 46 0 0.0 2.0 0.00 0.00 0.00 94 1007.1
20260901213533 46 0 1.0 2.0 0.00 0.00 0.00 93 1007.0
20260901213046 46 0 0.0 3.0 0.00 0.00 0.00 93 1006.9
20260901212533 46 0 0.0 3.0 0.00 0.00 0.00 94 1006.9
20260901212032 46 234 1.0 5.0 0.00 0.00 0.00 94 1006.9
20260901211543 46 233 1.0 6.0 0.00 0.00 0.00 94 1006.9
20260901211030 46 245 2.0 6.0 0.00 0.00 0.00 93 1006.9
20260901210531 46 250 1.0 5.0 0.00 0.00 0.00 93 1006.8
20260901210113 46 228 1.0 5.0 0.00 0.00 0.00 93 1006.9
20260901205530 46 206 0.0 2.0 0.00 0.00 0.00 93 1007.0
20260901205033 46 206 0.0 4.0 0.00 0.00 0.00 93 1007.0
20260901204548 46 206 1.0 4.0 0.00 0.00 0.00 93 1006.9
20260901204031 46 211 0.0 3.0 0.00 0.00 0.00 93 1006.8
20260901203531 46 212 1.0 3.0 0.00 0.00 0.00 93 1006.9
20260901203047 46 0 0.0 3.0 0.00 0.00 0.00 92 1007.0
20260901202533 46 233 1.0 3.0 0.00 0.00 0.00 92 1006.9
20260901202033 46 236 0.0 3.0 0.00 0.00 0.00 92 1007.0
20260901201543 46 268 0.0 2.0 0.00 0.00 0.00 92 1006.9
20260901201032 46 0 0.0 2.0 0.00 0.00 0.00 91 1007.0
20260901200529 46 0 0.0 4.0 0.00 0.00 0.00 91 1006.9
20260901200053 46 230 0.0 4.0 0.00 0.00 0.00 91 1006.9
20260901195533 47 231 1.0 3.0 0.00 0.00 0.00 91 1006.9
20260901195035 47 254 0.0 2.0 0.00 0.00 0.00 90 1006.9
20260901194601 47 0 0.0 2.0 0.00 0.00 0.00 90 1006.9
20260901194038 47 0 0.0 2.0 0.00 0.00 0.00 90 1006.9
20260901193533 47 0 0.0 3.0 0.00 0.00 0.00 90 1006.9
20260901193053 48 0 0.0 3.0 0.00 0.00 0.00 90 1006.9
20260901192530 48 0 0.0 3.0 0.00 0.00 0.00 89 1006.9
20260901192030 48 247 2.0 3.0 0.00 0.00 0.00 88 1006.8
20260901191548 48 241 1.0 3.0 0.00 0.00 0.00 88 1006.8
20260901191029 49 0 0.0 0.0 0.00 0.00 0.00 89 1006.7
20260901190533 49 0 0.0 0.0 0.00 0.00 0.00 89 1006.8
20260901190116 49 0 0.0 2.0 0.00 0.00 0.00 89 1006.9
20260901185531 49 0 0.0 2.0 0.00 0.00 0.00 88 1006.8
20260901185031 50 0 0.0 2.0 0.00 0.00 0.00 88 1006.9
20260901184551 50 239 1.0 2.0 0.00 0.00 0.00 87 1006.9
20260901184035 50 240 0.0 2.0 0.00 0.00 0.00 87 1006.9
20260901183531 50 0 0.0 2.0 0.00 0.00 0.00 88 1006.9
20260901183050 51 0 0.0 2.0 0.00 0.00 0.00 88 1006.9
20260901182532 51 0 0.0 2.0 0.00 0.00 0.00 87 1006.9
20260901182030 51 239 0.0 2.0 0.00 0.00 0.00 87 1006.9
20260901181557 52 0 0.0 2.0 0.00 0.00 0.00 86 1006.8
20260901181029 52 0 1.0 3.0 0.00 0.00 0.00 85 1006.9
20260901180532 52 239 0.0 3.0 0.00 0.00 0.00 84 1006.9
20260901180049 52 239 1.0 4.0 0.00 0.00 0.00 84 1007.0
20260901175533 53 239 2.0 4.0 0.00 0.00 0.00 84 1006.9
20260901175033 53 236 2.0 4.0 0.00 0.00 0.00 84 1006.8
20260901174554 53 249 2.0 4.0 0.00 0.00 0.00 85 1006.8
20260901174030 53 237 1.0 5.0 0.00 0.00 0.00 84 1006.8
20260901173531 53 0 2.0 6.0 0.00 0.00 0.00 85 1006.7
20260901173043 53 252 3.0 6.0 0.00 0.00 0.00 85 1006.8
20260901172530 53 256 2.0 7.0 0.00 0.00 0.00 85 1006.8
20260901172034 53 235 2.0 7.0 0.00 0.00 0.00 85 1006.8
20260901171611 54 263 2.0 7.0 0.00 0.00 0.00 85 1006.7
20260901171032 54 254 2.0 7.0 0.00 0.00 0.00 84 1006.7
20260901170531 54 267 2.0 7.0 0.00 0.00 0.00 84 1006.8
20260901170058 55 0 3.0 10.0 0.00 0.00 0.00 83 1006.7
20260901165535 55 290 3.0 11.0 0.00 0.00 0.00 82 1006.7
20260901165032 55 275 6.0 13.0 0.00 0.00 0.00 81 1006.7
20260901164552 56 243 5.0 13.0 0.00 0.00 0.00 81 1006.7
20260901164033 56 289 4.0 11.0 0.00 0.00 0.00 80 1006.7
20260901163533 56 234 6.0 12.0 0.00 0.00 0.00 81 1006.7
20260901163103 56 256 5.0 12.0 0.00 0.00 0.00 81 1006.8
20260901162533 56 277 3.0 8.0 0.00 0.00 0.00 81 1006.7
20260901162032 57 263 3.0 9.0 0.00 0.00 0.00 80 1006.7
20260901161550 57 249 4.0 12.0 0.00 0.00 0.00 79 1006.7
20260901161034 57 260 4.0 13.0 0.00 0.00 0.00 80 1006.6
20260901160532 57 255 4.0 13.0 0.00 0.00 0.00 79 1006.6
20260901160051 58 291 4.0 13.0 0.00 0.00 0.00 79 1006.6
20260901155531 58 258 4.0 14.0 0.00 0.00 0.00 79 1006.6
20260901155034 58 252 6.0 14.0 0.00 0.00 0.00 78 1006.6
20260901154553 58 260 5.0 12.0 0.00 0.00 0.00 79 1006.5
20260901154033 58 276 5.0 11.0 0.00 0.00 0.00 78 1006.5
20260901153533 58 260 3.0 12.0 0.00 0.00 0.00 79 1006.5
20260901153052 58 264 4.0 12.0 0.00 0.00 0.00 79 1006.4
20260901152533 59 276 5.0 12.0 0.00 0.00 0.00 77 1006.5
20260901152029 59 265 6.0 13.0 0.00 0.00 0.00 77 1006.4
20260901151552 60 192 6.0 13.0 0.00 0.00 0.00 76 1006.4
20260901151033 59 269 3.0 12.0 0.00 0.00 0.00 77 1006.3
20260901150532 60 246 4.0 12.0 0.00 0.00 0.00 74 1006.3
20260901150052 60 224 6.0 12.0 0.00 0.00 0.00 75 1006.3
20260901145529 59 292 6.0 15.0 0.00 0.00 0.00 77 1006.3
20260901145033 60 303 6.0 15.0 0.00 0.00 0.00 74 1006.2
20260901144552 60 249 6.0 15.0 0.00 0.00 0.00 75 1006.2
20260901144034 60 268 5.0 15.0 0.00 0.00 0.00 75 1006.2
20260901143532 61 230 7.0 15.0 0.00 0.00 0.00 75 1006.3
20260901143052 60 258 5.0 13.0 0.00 0.00 0.00 75 1006.2
20260901142533 61 233 6.0 12.0 0.00 0.00 0.00 74 1006.2
20260901142032 61 271 6.0 12.0 0.00 0.00 0.00 74 1006.2